Location: Borovka
(49.7741°N, 14.5280°E)
Time: 03:09:42
(UTC+00:00)

ESTCUBE 1 - Pass Details

Date: 23 March 2026
Orbit: 620 x 631 km, 97.7° (Epoch: 13 April)

Event Time Altitude Azimuth Distance (km) Brightness Sun altitude
Exits shadow 18:02:17 - 90° (E) 2,074 ? -7.7°
Reaches altitude 10° 18:02:35 10° 87° (E) 2,012 ? -7.7°
Maximum altitude 18:04:45 14° 57° (ENE) 1,781 ? -8.1°
Drops below altitude 10° 18:06:56 10° 27° (NNE) 2,021 ? -8.4°
Sets 18:10:07 0° 2° (N) 2,936 ? -8.9°
